Location: ?????? ??????
(38.7806°N, 22.7884°E)
Time: 14:32:29
(UTC+00:00)

Daily predictions for brighter satellites

Satellite Brightness Start Highest point End
(mag) Time Altitude Azimuth Time Altitude Azimuth Time Altitude Azimuth
ATLAS 2AS CENTAUR R/B 2.9 18:17:17 10° NNW 18:24:00 61° NE 18:30:30 10° SE
Cosmos 2333 Rocket 2.6 18:18:43 10° NNW 18:24:22 52° ENE 18:29:58 10° SE
SL-14 R/B 3.6 18:23:33 10° SSE 18:27:07 41° E 18:30:43 10° NNE
Cosmos 1300 3.6 18:25:34 10° NNE 18:28:42 28° ENE 18:31:48 10° SE
Cosmos 1833 4.2 18:23:45 10° SSW 18:29:23 84° ESE 18:35:02 10° NNE
CZ-4C R/B 4.3 18:28:12 10° NE 18:31:46 28° E 18:35:13 10° SSE
Cosmos 1869 Rocket 3.6 18:28:00 10° N 18:32:29 85° E 18:36:56 10° S
Cosmos 2315 Rocket 4.5 18:29:49 10° N 18:35:56 45° ENE 18:41:59 10° SSE
COSMOS 2455 3.8 18:31:14 10° SSE 18:36:01 25° ESE 18:40:48 10° NE
SJ 16-02 1.2 18:34:56 10° S 18:39:13 74° ESE 18:43:32 10° NNE
Cosmos 2322 Rocket 2.3 18:33:37 10° NNW 18:39:20 84° WSW 18:45:02 10° SSE
SL-08 ROCKET BODY 4.4 18:34:34 10° S 18:40:40 81° E 18:46:41 10° N
Cosmos 2297 Rocket 4.0 18:40:40 10° ESE 18:42:20 11° E 18:43:59 10° E
Cosmos 2333 4.5 18:38:27 10° NNW 18:44:10 58° ENE 18:49:47 10° SE
Meteor 1-23 Rocket 4.3 18:39:30 10° S 18:45:11 90° WSW 18:50:59 10° N
Okean 1-7 4.2 18:45:50 10° SE 18:49:14 24° E 18:52:41 10° NE
Meteor 1-12 Rocket 4.4 18:46:35 10° N 18:52:37 79° E 18:58:32 10° SSE
Cosmos 2219 Rocket 2.6 18:47:36 10° NNW 18:53:08 50° ENE 18:58:01 13° SE
Cosmos 1455 4.2 18:51:57 10° NE 18:53:30 12° ENE 18:55:01 10° E
Okean 3 3.8 18:50:34 10° SSE 18:54:31 46° E 18:58:32 10° NNE
Okean-O 2.6 18:53:05 10° SSE 18:57:28 73° ENE 19:01:52 10° N
Cosmos 2266 Rocket 4.5 18:52:28 10° SSW 18:58:47 67° W 19:05:11 10° N
Cosmos 1758 3.2 18:56:15 10° N 19:00:13 84° E 19:04:09 10° S
Cosmos 1862 Rocket 3.5 18:56:29 10° S 19:00:51 71° E 19:05:17 10° NNE
PSLV R/B 4.4 18:57:56 10° S 19:01:20 48° W 19:04:42 10° NNW
CZ-4C R/B 2.1 18:58:16 10° S 19:02:07 37° ESE 19:06:42 10° NE
Cosmos 1356 Rocket 3.9 18:58:19 10° SSW 19:02:29 65° W 19:06:40 10° N
BREEZE-M DEB (TANK) 3.5 19:00:23 10° SSW 19:03:21 28° SE 19:05:29 10° ENE
Okean O Rocket 2.5 18:59:53 10° S 19:04:05 47° W 19:08:18 10° NNW
MOS 1 4.3 19:00:40 10° SSE 19:06:17 80° ENE 19:11:57 10° NNW
S3M 4.3 19:00:20 10° NNW 19:06:37 70° W 19:12:45 10° S
Cosmos 839 Rocket 4.2 19:00:20 10° NNW 19:06:53 63° ENE 19:11:48 16° SE
Ariane Rocket 4.2 19:04:16 14° ESE 19:07:42 28° ENE 19:12:00 10° N
MetOp-B 4.2 19:03:28 12° SSE 19:08:21 67° ENE 19:13:40 10° N
Meteor 2-10 Rocket 3.8 19:04:27 10° NNW 19:09:47 70° W 19:14:52 10° S
CZ-4 R/B 4.2 19:07:53 10° WSW 19:09:56 14° W 19:12:00 10° WNW
Cosmos 2228 Rocket 3.6 19:05:41 10° SSW 19:10:12 65° W 19:14:45 10° N
Delta 2 Rocket 3.3 19:07:37 10° WSW 19:10:41 36° SSE 19:12:20 21° ESE
OPS 8737 4.1 19:07:43 10° NNW 19:10:43 90° WSW 19:12:53 20° SSE
Terra 2.5 19:11:08 17° SE 19:14:14 38° ENE 19:18:35 10° N
Cosmos 807 4.2 19:11:42 10° S 19:14:42 73° W 19:17:35 10° N
DNEPR-1 R/B 4.1 19:09:51 10° NNW 19:16:07 89° WSW 19:19:53 19° SSE
Meteor 1-4 Rocket 2.1 19:13:33 10° SSW 19:16:31 77° W 19:19:32 10° N
Cosmos 1242 Rocket 2.8 19:16:10 26° ESE 19:16:32 27° E 19:18:54 10° NNE
MOS 1 Rocket 4.2 19:15:36 18° SE 19:19:05 39° ENE 19:23:51 10° N
Cosmos 1707 Rocket 4.2 19:15:37 10° SSW 19:19:58 56° W 19:24:19 10° N
SL-24 R/B - RUBIN 2 4.5 19:16:36 10° NW 19:23:07 79° WSW 19:27:29 19° SSE
USA 234 3.7 19:17:13 10° ENE 19:23:14 38° SE 19:29:12 10° SSW
Cosmos 2360 Rocket 3.1 19:18:09 10° NW 19:23:31 46° WSW 19:28:51 10° S
ARGOS Delta rocket 3.8 19:20:46 13° S 19:24:39 73° W 19:29:02 10° NNW
COSMOS 2428 3.3 19:22:01 10° N 19:27:27 44° ENE 19:30:54 21° ESE
SPOT 5 2.8 19:25:47 16° S 19:29:14 73° W 19:33:44 10° NNW
IRS-1C Rocket 4.1 19:27:39 17° SSE 19:31:42 90° W 19:36:58 10° NNW
Cosmos 1244 Rocket 4.5 19:25:46 11° S 19:31:47 70° E 19:38:06 10° NNE
Cosmos 1953 2.6 19:29:13 10° N 19:32:53 45° E 19:34:18 30° SE
Cosmos 1733 Rocket 3.9 19:33:44 10° NNW 19:38:00 49° W 19:41:47 13° SSW
ERS-1 Rocket 2.9 19:41:28 23° SSE 19:44:41 86° W 19:49:44 10° NNW
SL-08 R/B 4.4 19:40:35 17° S 19:45:16 71° E 19:51:22 10° NNE
Meteor 2-20 Rocket 4.3 19:40:41 10° N 19:46:46 84° E 19:50:31 23° S
NOSS 5 (C) 4.4 19:46:00 10° NNW 19:49:08 63° NE 19:49:52 46° ESE
Cosmos 1315 Rocket 3.6 19:45:53 10° SSW 19:49:44 49° WNW 19:53:38 10° N
Resurs 01 Rocket 4.5 19:49:23 10° WSW 19:50:25 11° W 19:51:27 10° WNW
Cosmos 2084 Rocket 3.5 19:50:43 10° SW 19:55:04 77° WNW 19:59:18 10° NNE
SL-4 R/B 2.1 19:52:20 10° NW 19:56:13 68° NE 19:57:36 38° ESE
Cosmos 2242 Rocket 4.4 19:58:29 32° ESE 19:59:08 33° E 20:03:14 10° NNE
Cosmos 1408 3.4 20:00:53 28° ENE 20:00:53 28° ENE 20:02:48 10° NNE
Cosmos 1908 Rocket 3.4 19:56:44 10° N 20:01:04 88° E 20:02:37 39° S
Cosmos 1782 Rocket 3.9 20:00:58 10° N 20:05:10 47° E 20:06:01 41° ESE
Cosmos 1570 Rocket 4.0 20:00:01 10° NNW 20:05:23 80° WSW 20:07:47 34° S
Cosmos 2237 Rocket 3.1 20:01:02 10° N 20:06:12 35° ENE 20:08:28 26° ESE
Cosmos 2227 Rocket 2.9 20:06:00 32° ESE 20:06:47 33° ESE 20:11:47 10° NE
Cosmos 2333 Rocket 4.2 20:04:00 10° NW 20:08:10 21° W 20:12:19 10° SSW
Cosmos 1300 Rocket 4.0 20:04:47 10° N 20:08:54 42° ENE 20:09:35 39° ESE
Cosmos 836 Rocket 4.4 20:09:02 10° NNW 20:14:16 75° ENE 20:16:01 42° SSE
ATLAS 2AS CENTAUR R/B 4.3 20:09:12 10° WNW 20:14:17 24° WSW 20:18:41 12° SSW
SL-23 DEB 4.0 20:12:46 10° SW 20:16:12 79° NW 20:21:33 10° NE
Meteor 2-5 Rocket 4.4 20:16:54 35° ESE 20:18:15 40° E 20:23:36 10° NNE
Landsat 4 3.8 20:19:39 51° SW 20:19:59 54° W 20:23:21 10° NNW
NOSS 0 Rocket 3.9 20:14:10 10° NNW 20:20:27 80° ENE 20:22:55 39° SSE
Spot 2 Rocket 4.0 20:18:30 28° SSW 20:20:54 52° W 20:25:53 10° NNW
Cosmos 1980 4.1 20:15:28 10° NNW 20:20:59 50° ENE 20:22:53 36° ESE
COSMOS 2455 3.7 20:15:47 10° SW 20:21:35 49° WNW 20:27:26 10° NNE
Cosmos 2322 4.2 20:16:43 10° NNW 20:22:12 52° WSW 20:24:36 31° SSW
Cosmos 1777 Rocket 4.0 20:20:53 42° S 20:22:31 65° ESE 20:27:45 10° NNE
Cosmos 2297 Rocket 2.2 20:21:39 21° SSW 20:25:30 85° WNW 20:31:11 10° NNE
SeaSat 1 2.3 20:24:21 48° SE 20:25:43 83° ENE 20:30:40 10° NNW
ARIANE 5 R/B 4.0 20:26:17 24° ENE 20:26:44 24° ENE 20:30:15 10° NNE
Cosmos 1455 3.4 20:24:52 10° NNW 20:28:00 31° W 20:28:43 28° WSW
GP-B 3.0 20:24:33 10° N 20:28:57 71° E 20:29:29 62° SE
SPOT 3 Rocket 4.1 20:27:20 32° SSW 20:29:28 52° W 20:34:32 10° NNW
Landsat 5 3.7 20:26:24 10° N 20:30:35 69° WNW 20:31:54 42° SW
Cosmos 1174 4.5 20:27:05 10° NNW 20:31:21 41° NE 20:31:42 40° ENE
MetOp-A 4.0 20:31:44 50° SSE 20:33:10 84° ENE 20:38:22 10° NNW
Cosmos 1503 Rocket 4.0 20:31:33 32° SSW 20:34:05 81° WNW 20:39:23 10° NNE
Cosmos 1703 3.5 20:36:09 53° NE 20:36:09 53° NE 20:39:11 10° NNE
Cosmos 2219 Rocket 4.1 20:32:27 10° NW 20:36:38 21° W 20:39:44 14° SW
CENTAUR R/B 2.2 20:35:25 43° S 20:37:13 68° ESE 20:43:43 10° NE
Cosmos 158 Rocket 4.3 20:33:21 10° NNW 20:38:25 54° WSW 20:39:46 41° SSW
BREEZE-M R/B 4.2 20:42:22 30° E 20:42:22 30° E 20:46:26 10° ENE
Cosmos 2219 3.9 20:42:06 34° E 20:42:06 34° E 20:46:50 10° NE
Cosmos 1745 Rocket 4.2 20:38:43 28° SSW 20:42:13 68° W 20:48:35 10° N
Cosmos 2263 Rocket 3.5 20:45:28 24° E 20:45:28 24° E 20:49:05 10° NE
Cosmos 371 Rocket 4.5 20:42:40 15° SW 20:46:12 39° WNW 20:50:44 10° N
Ariane Rocket 4.3 20:44:25 23° SW 20:46:29 32° W 20:51:01 10° NW
CZ-4C R/B 4.1 20:46:52 10° W 20:50:37 25° NW 20:55:03 10° NNE
Nadezhda 1 Rocket 4.2 20:44:37 10° NNW 20:50:44 63° W 20:53:01 38° SSW
Meteor 1-24 Rocket 3.6 20:50:34 55° S 20:51:51 79° E 20:57:25 10° NNE
Terra 3.8 20:49:49 15° SW 20:51:54 20° W 20:55:22 10° NW
Cosmos 1892 4.5 20:57:21 21° NE 20:57:21 21° NE 20:58:56 10° NNE
Okean 2 Rocket 4.1 20:57:09 10° N 21:01:01 34° ENE 21:01:01 34° ENE
USA 234 3.8 20:59:57 10° NE 21:06:21 59° NW 21:12:43 10° WSW
Cosmos 783 Rocket 4.3 21:02:08 10° NNW 21:07:28 86° ENE 21:08:01 73° SSE
ALOS 2 4.2 21:09:13 23° ENE 21:09:13 23° ENE 21:12:39 10° NNE
COSMOS 2428 4.2 21:06:51 10° NW 21:11:22 25° WSW 21:12:54 22° SW
USA 281 3.7 21:09:21 38° ESE 21:11:31 51° ENE 21:17:51 10° NNW
Cosmos 2074 Rocket 4.3 21:14:11 47° ESE 21:14:53 49° E 21:20:50 10° NNE
Cosmos 405 Rocket 3.5 21:14:55 10° N 21:17:44 48° NNW 21:17:44 48° NNW
Aureole 1 Rocket 4.2 21:23:49 33° NE 21:23:49 33° NE 21:26:52 10° NNE
PSLV R/B 4.4 21:19:04 10° N 21:22:19 57° N 21:22:19 57° N
Cosmos 2181 Rocket 3.8 21:17:20 10° N 21:23:30 75° E 21:24:25 63° SE
Cosmos 990 Rocket 3.8 21:24:51 84° SW 21:25:00 88° WNW 21:30:10 10° NNE
Cosmos 2221 Rocket 3.8 21:30:14 66° NNE 21:30:14 66° NNE 21:34:03 10° N
CZ-2C R/B 4.4 21:26:19 10° N 21:30:33 45° WNW 21:30:58 44° W
CZ-3 Stage 3 4.3 21:01:24 10° W 21:35:17 43° SW 21:38:20 38° S
Okean 1 Rocket 3.7 21:33:24 10° N 21:36:59 48° NE 21:36:59 48° NE
Cosmos 2098 Rocket 4.0 21:32:39 10° NNW 21:38:51 60° W 21:39:36 55° SW
Sich 1 Rocket 3.9 21:36:06 10° N 21:39:46 62° NNW 21:39:46 62° NNW
Cosmos 1025 Rocket 4.0 21:47:07 42° NE 21:47:07 42° NE 21:50:11 10° NNE
Cosmos 372 Rocket 4.5 21:46:47 49° ENE 21:46:47 49° ENE 21:51:09 10° NNE
SL-16 R/B 2.1 21:43:56 10° NNW 21:49:39 74° ENE 21:50:00 72° E
Cosmos 2237 Rocket 3.3 21:45:14 10° NW 21:50:05 30° WSW 21:50:16 30° WSW
NOSS 3-2 (A) 3.7 21:48:36 39° W 21:50:09 53° NW 21:55:56 10° NNE
Cosmos 2227 Rocket 3.6 21:47:45 21° WSW 21:50:44 33° WNW 21:55:50 10° N
Cosmos 2082 3.5 21:54:18 82° SW 21:54:31 86° WNW 22:00:10 10° NNE
H-2A R/B 3.3 21:56:06 49° NW 21:56:06 49° NW 21:59:19 10° NNW
Nadezhda 3 Rocket 4.0 21:51:55 10° N 21:58:05 64° E 21:58:44 60° ESE
NOSS 3-2 (C) 3.0 22:02:06 78° ENE 22:02:06 78° ENE 22:07:40 10° NE
ARIANE 5 R/B 4.2 22:03:45 26° WNW 22:03:45 26° WNW 22:06:43 10° NW
Cosmos 1825 4.3 22:06:40 21° NW 22:06:40 21° NW 22:08:19 10° NNW
Cosmos 1455 Rocket 4.1 22:01:40 10° N 22:05:09 41° NE 22:05:09 41° NE
Cosmos 2184 Rocket 4.2 22:08:10 55° SW 22:09:14 64° W 22:15:35 10° N
Spot 4 4.4 22:10:06 51° WNW 22:10:06 51° WNW 22:14:14 10° NNW
Cosmos 2327 Rocket 4.3 22:18:41 73° SE 22:19:03 76° E 22:25:11 10° N
SL-8 Rocket 4.3 22:26:19 50° ESE 22:26:48 51° E 22:32:46 10° NNE
Cosmos 2154 Rocket 4.3 22:27:17 50° WSW 22:28:12 55° W 22:34:24 10° N
Cosmos 2263 Rocket 3.0 22:27:07 37° W 22:28:15 42° WNW 22:33:31 10° N
CENTAUR R/B 4.5 22:23:53 10° W 22:28:36 24° NW 22:34:07 10° NNE
Cosmos 1937 Rocket 3.6 22:31:11 68° WNW 22:31:11 68° WNW 22:36:17 10° NNE
Cosmos 1818 3.6 22:27:50 10° NNW 22:32:53 73° WNW 22:32:53 73° WNW
Cosmos 2227 4.1 22:38:22 82° ESE 22:38:22 82° ESE 22:44:07 10° NNE
Cosmos 962 Rocket 4.3 22:38:26 75° S 22:39:02 87° E 22:45:22 10° N
Cosmos 1844 4.4 22:41:19 41° E 22:41:19 41° E 22:46:25 10° NE
Cosmos 1844 Rocket 3.1 22:44:32 50° E 22:44:32 50° E 22:49:31 10° NNE
ALOS 2 4.3 22:46:36 25° WNW 22:46:36 25° WNW 22:49:12 10° NW
Cosmos 923 Rocket 4.2 22:45:12 10° NNW 22:49:49 63° WNW 22:49:49 63° WNW
USA 281 4.3 22:56:14 28° WSW 22:56:14 28° WSW 23:01:43 10° NW
H-2A R/B 3.0 22:53:57 10° N 22:57:02 41° NNW 22:57:02 41° NNW
Meteor 1-11 4.3 23:01:17 64° W 23:01:37 66° W 23:07:24 10° N
Cosmos 864 Rocket 4.3 23:03:50 72° S 23:04:35 89° E 23:10:56 10° N
Cosmos 921 Rocket 4.3 23:03:02 10° N 23:06:40 32° ENE 23:06:40 32° ENE
IDEFIX/ARIANE 42P 4.4 23:05:43 10° NE 23:09:24 19° E 23:10:02 19° ESE
USA 238 DEB 3.7 23:08:11 52° WSW 23:09:31 64° NW 23:16:07 10° NNE
USA 238 3.7 23:08:14 52° WSW 23:09:33 65° NW 23:16:10 10° NNE
Cosmos 1437 Rocket 4.3 23:10:54 31° NE 23:10:54 31° NE 23:13:09 10° NNE
Cosmos 1544 Rocket 4.1 23:14:47 10° N 23:18:17 54° NNW 23:18:17 54° NNW
Cosmos 1867 4.4 23:19:03 39° W 23:20:04 43° NW 23:25:17 10° NNE
Cosmos 1680 Rocket 4.3 23:24:16 10° NNW 23:28:15 37° WNW 23:28:15 37° WNW
Cosmos 2341 Rocket 4.4 23:28:46 43° WSW 23:29:39 46° WNW 23:35:38 10° N
SL-16 R/B 4.3 23:30:19 10° WNW 23:31:50 13° W 23:31:50 13° W
Cosmos 1821 Rocket 3.8 23:32:20 65° S 23:33:18 85° E 23:39:31 10° N
Cosmos 1943 3.8 23:33:45 10° NW 23:38:26 42° W 23:38:26 42° W
Cosmos 1603 3.6 23:33:40 10° NNW 23:39:23 72° WSW 23:39:41 70° SW
Helios 1A Rocket 3.5 23:42:09 51° NNE 23:42:09 51° NNE 23:45:13 10° N
Lacrosse 5 3.6 23:43:42 20° ESE 23:43:42 20° ESE 23:46:53 10° ENE
Cosmos 494 Rocket 3.8 23:39:00 10° NNW 23:44:17 82° WSW 23:44:30 79° SSW
Meteor 2-13 Rocket 4.3 23:41:05 10° N 23:47:14 90° SE 23:48:35 58° S
Gbstr 26 Del rocket 4.2 23:47:45 43° SE 23:47:56 43° SE 23:54:06 10° ENE
Timation 2 Rocket 4.0 23:49:28 57° S 23:50:56 82° ESE 23:57:18 10° NNE
COBE Rocket 3.9 23:46:38 10° NNE 23:51:49 76° ESE 23:52:20 68° SSE
Cosmos 1606 Rocket 3.7 23:49:40 10° N 23:54:04 65° E 23:54:10 65° E
